• In Italy
  • List of Countries
  • For 7 days
  • Water Temperature
  • Satellite Maps
  • Weather Map
  • Weather Widgets
  • user-avatar
    Login

    Hourly Weather Ahmadabad

    Today, 21 September, Thursday

    Time Temperature Precipitation Wind Pressure Humidity
    00:00 +33°C° 0 mm 3 mps 748 mmHg 59%
    01:00 +31°C° 0 mm 3 mps 748 mmHg 62%
    02:00 +31°C° 0 mm 3 mps 747 mmHg 66%
    03:00 +30°C° 0 mm 3 mps 747 mmHg 69%
    04:00 +30°C° 0 mm 3 mps 747 mmHg 72%
    05:00 +29°C° 0 mm 3 mps 747 mmHg 75%
    06:00 +30°C° 0 mm 3 mps 748 mmHg 74%
    07:00 +30°C° 0 mm 3 mps 748 mmHg 73%
    08:00 +31°C° 0 mm 3 mps 749 mmHg 73%
    09:00 +33°C° 0 mm 3 mps 749 mmHg 66%
    10:00 +35°C° 0 mm 3 mps 749 mmHg 59%
    11:00 +36°C° 0 mm 3 mps 749 mmHg 52%
    12:00 +37°C° 0 mm 3 mps 748 mmHg 48%
    13:00 +38°C° 0 mm 3 mps 748 mmHg 44%
    14:00 +39°C° 0 mm 3 mps 747 mmHg 40%
    15:00 +38°C° 0 mm 3 mps 747 mmHg 41%
    16:00 +38°C° 0 mm 3 mps 747 mmHg 42%
    17:00 +38°C° 0 mm 3 mps 747 mmHg 43%
    18:00 +36°C° 0 mm 3 mps 748 mmHg 48%
    19:00 +35°C° 0 mm 3 mps 748 mmHg 54%
    20:00 +33°C° 0 mm 4 mps 749 mmHg 60%
    21:00 +33°C° 0.3 mm 4 mps 749 mmHg 62%
    22:00 +32°C° 0.3 mm 4 mps 749 mmHg 64%
    23:00 +32°C° 0.3 mm 4 mps 749 mmHg 67%

    Tomorrow, 22 September, Friday

    Time Temperature Precipitation Wind Pressure Humidity
    00:00 +32°C° 0 mm 4 mps 749 mmHg 68%
    01:00 +30°C° 0 mm 4 mps 749 mmHg 70%
    02:00 +30°C° 0 mm 4 mps 748 mmHg 71%
    03:00 +29°C° 0 mm 4 mps 748 mmHg 74%
    04:00 +29°C° 0 mm 4 mps 748 mmHg 76%
    05:00 +29°C° 0 mm 4 mps 749 mmHg 78%
    06:00 +29°C° 0 mm 4 mps 749 mmHg 77%
    07:00 +30°C° 0 mm 4 mps 750 mmHg 75%
    08:00 +30°C° 0 mm 4 mps 751 mmHg 74%
    09:00 +32°C° 0 mm 4 mps 751 mmHg 67%
    10:00 +34°C° 0 mm 4 mps 751 mmHg 61%
    11:00 +35°C° 0 mm 4 mps 751 mmHg 55%
    12:00 +36°C° 0 mm 4 mps 750 mmHg 51%
    13:00 +37°C° 0 mm 4 mps 750 mmHg 47%
    14:00 +38°C° 0 mm 4 mps 749 mmHg 43%
    15:00 +37°C° 0 mm 4 mps 749 mmHg 45%
    16:00 +36°C° 0 mm 4 mps 749 mmHg 47%
    17:00 +36°C° 0 mm 3 mps 749 mmHg 49%
    18:00 +35°C° 0 mm 4 mps 750 mmHg 54%
    19:00 +34°C° 0 mm 4 mps 750 mmHg 59%
    20:00 +32°C° 0 mm 5 mps 751 mmHg 63%
    21:00 +32°C° 0 mm 4 mps 751 mmHg 66%
    22:00 +32°C° 0 mm 4 mps 751 mmHg 68%
    23:00 +32°C° 0 mm 4 mps 751 mmHg 70%

    Day after tomorrow, 23 September, Saturday

    Time Temperature Precipitation Wind Pressure Humidity
    00:00 +30°C° 0 mm 4 mps 751 mmHg 70%
    01:00 +30°C° 0 mm 4 mps 750 mmHg 70%
    02:00 +30°C° 0 mm 4 mps 750 mmHg 71%
    03:00 +30°C° 0 mm 4 mps 750 mmHg 72%
    04:00 +29°C° 0 mm 4 mps 750 mmHg 74%
    05:00 +29°C° 0 mm 4 mps 750 mmHg 76%
    06:00 +29°C° 0 mm 4 mps 751 mmHg 74%
    07:00 +30°C° 0 mm 3 mps 752 mmHg 72%
    08:00 +30°C° 0 mm 3 mps 752 mmHg 70%
    09:00 +31°C° 0 mm 3 mps 752 mmHg 64%
    10:00 +34°C° 0 mm 3 mps 752 mmHg 58%
    11:00 +35°C° 0 mm 3 mps 753 mmHg 52%
    12:00 +36°C° 0 mm 3 mps 752 mmHg 48%
    13:00 +37°C° 0 mm 3 mps 751 mmHg 44%
    14:00 +38°C° 0 mm 4 mps 751 mmHg 40%
    15:00 +37°C° 0 mm 3 mps 750 mmHg 41%
    16:00 +37°C° 0 mm 3 mps 750 mmHg 42%
    17:00 +37°C° 0 mm 3 mps 750 mmHg 43%
    18:00 +35°C° 0 mm 3 mps 751 mmHg 47%
    19:00 +34°C° 0 mm 3 mps 751 mmHg 51%
    20:00 +33°C° 0 mm 3 mps 752 mmHg 56%
    21:00 +31°C° 0 mm 3 mps 752 mmHg 60%
    22:00 +31°C° 0 mm 3 mps 752 mmHg 64%
    23:00 +30°C° 0 mm 3 mps 752 mmHg 68%

    24 September, Sunday

    Time Temperature Precipitation Wind Pressure Humidity
    00:00 +30°C° 0 mm 3 mps 752 mmHg 69%
    01:00 +29°C° 0 mm 3 mps 751 mmHg 71%
    02:00 +29°C° 0 mm 3 mps 751 mmHg 73%
    03:00 +29°C° 0 mm 3 mps 751 mmHg 74%
    04:00 +28°C° 0 mm 3 mps 751 mmHg 75%
    05:00 +28°C° 0 mm 3 mps 751 mmHg 76%
    06:00 +29°C° 0 mm 3 mps 752 mmHg 75%
    07:00 +29°C° 0 mm 3 mps 752 mmHg 74%
    08:00 +30°C° 0 mm 3 mps 753 mmHg 73%
    09:00 +31°C° 0 mm 3 mps 753 mmHg 66%
    10:00 +34°C° 0 mm 3 mps 753 mmHg 60%
    11:00 +35°C° 0 mm 3 mps 753 mmHg 54%
    12:00 +36°C° 0 mm 3 mps 752 mmHg 50%
    13:00 +37°C° 0 mm 4 mps 751 mmHg 46%
    14:00 +38°C° 0 mm 4 mps 751 mmHg 42%
    15:00 +37°C° 0 mm 3 mps 751 mmHg 43%
    16:00 +37°C° 0 mm 3 mps 750 mmHg 43%
    17:00 +37°C° 0 mm 3 mps 750 mmHg 44%
    18:00 +36°C° 0 mm 3 mps 751 mmHg 47%
    19:00 +34°C° 0 mm 3 mps 751 mmHg 51%
    20:00 +32°C° 0 mm 2 mps 752 mmHg 54%
    21:00 +31°C° 0 mm 3 mps 752 mmHg 58%
    22:00 +31°C° 0 mm 3 mps 752 mmHg 62%
    23:00 +30°C° 0 mm 3 mps 752 mmHg 65%

    25 September, Monday

    Time Temperature Precipitation Wind Pressure Humidity
    00:00 +30°C° 0 mm 3 mps 751 mmHg 67%
    01:00 +29°C° 0 mm 2 mps 751 mmHg 69%
    02:00 +29°C° 0 mm 2 mps 750 mmHg 71%
    03:00 +28°C° 0 mm 2 mps 750 mmHg 72%
    04:00 +28°C° 0 mm 2 mps 750 mmHg 73%
    05:00 +28°C° 0 mm 2 mps 750 mmHg 74%
    06:00 +28°C° 0 mm 2 mps 751 mmHg 73%
    07:00 +29°C° 0 mm 3 mps 751 mmHg 71%
    08:00 +30°C° 0 mm 3 mps 752 mmHg 70%
    09:00 +31°C° 0 mm 3 mps 752 mmHg 64%
    10:00 +34°C° 0 mm 3 mps 752 mmHg 57%
    11:00 +35°C° 0 mm 4 mps 752 mmHg 51%
    12:00 +36°C° 0 mm 4 mps 751 mmHg 47%
    13:00 +37°C° 0 mm 4 mps 750 mmHg 44%
    14:00 +38°C° 0 mm 4 mps 749 mmHg 40%
    15:00 +38°C° 0 mm 3 mps 749 mmHg 41%
    16:00 +37°C° 0 mm 3 mps 749 mmHg 42%
    17:00 +37°C° 0 mm 3 mps 749 mmHg 42%
    18:00 +36°C° 0 mm 3 mps 750 mmHg 46%
    19:00 +34°C° 0 mm 2 mps 750 mmHg 50%
    20:00 +32°C° 0 mm 2 mps 750 mmHg 54%
    21:00 +31°C° 0 mm 3 mps 750 mmHg 58%
    22:00 +30°C° 0 mm 3 mps 751 mmHg 62%
    23:00 +30°C° 0 mm 3 mps 751 mmHg 66%

    26 September, Tuesday

    Time Temperature Precipitation Wind Pressure Humidity
    00:00 +29°C° 0 mm 3 mps 750 mmHg 68%
    01:00 +29°C° 0 mm 3 mps 750 mmHg 70%
    02:00 +29°C° 0 mm 3 mps 750 mmHg 72%
    03:00 +28°C° 0 mm 2 mps 750 mmHg 73%
    04:00 +28°C° 0 mm 2 mps 750 mmHg 74%
    05:00 +28°C° 0 mm 2 mps 750 mmHg 76%
    06:00 +28°C° 0 mm 2 mps 750 mmHg 74%
    07:00 +29°C° 0 mm 2 mps 751 mmHg 72%
    08:00 +30°C° 0 mm 2 mps 752 mmHg 70%
    09:00 +31°C° 0 mm 2 mps 751 mmHg 64%
    10:00 +33°C° 0 mm 3 mps 751 mmHg 58%
    11:00 +35°C° 0 mm 3 mps 751 mmHg 52%
    12:00 +36°C° 0 mm 3 mps 750 mmHg 49%
    13:00 +37°C° 0 mm 3 mps 750 mmHg 45%
    14:00 +38°C° 0 mm 3 mps 749 mmHg 42%
    15:00 +37°C° 0 mm 3 mps 749 mmHg 42%
    16:00 +37°C° 0 mm 2 mps 749 mmHg 43%
    17:00 +37°C° 0 mm 2 mps 749 mmHg 43%
    18:00 +36°C° 0 mm 2 mps 750 mmHg 47%
    19:00 +34°C° 0 mm 2 mps 750 mmHg 52%
    20:00 +33°C° 0 mm 3 mps 750 mmHg 56%
    21:00 +31°C° 0 mm 3 mps 750 mmHg 59%
    22:00 +31°C° 0 mm 3 mps 751 mmHg 63%
    23:00 +30°C° 0 mm 3 mps 751 mmHg 66%
    Show more